Flight Track Log - Related Links

Times and Time Zones

All times are in EDT time to prevent confusion due to time zone crossing. See the TCF6016 flight status page for this flight to view local times or setup timezone preferences in your user account.

Time Position Orientation Groundspeed Altitude Reporting Facility
EDT Latitude Longitude Course Direction KTS MPH feet Rate Location/Type
Fri 07:47:03 PM 40.7500 -73.8333 254° West 159 183 1,900  Level New York TRACON
Fri 07:48:03 PM 40.7000 -73.8500 194° South 205 236 4,400 2,950 Climbing New York TRACON
Fri 07:49:03 PM 40.7333 -73.9167 303° West 225 259 7,800 2,857 Climbing New York TRACON
Fri 07:50:00 PM 40.6716 -74.3630 254° West  Level Estimated
Fri 07:50:09 PM 40.7667 -74.0000 298° West 251 289 10,400  Level New York TRACON
Fri 07:51:00 PM 40.6449 -74.4853 254° West  Level Estimated
Fri 07:51:09 PM 40.7833 -74.1000 282° West 279 321 12,500  Level New York TRACON
Fri 07:52:00 PM 40.6180 -74.6076 254° West  Level Estimated
Fri 07:52:09 PM 40.7833 -74.2000 270° West 304 350 14,900  Level New York TRACON
Fri 07:54:18 PM 40.7925 -74.4247 273° West 307 353 17,000 706 Climbing New York Center
Fri 07:55:16 PM 40.7950 -74.5483 272° West 313 360 17,100 101 Climbing New York Center
Fri 07:56:17 PM 40.7978 -74.6553 272° West 313 360 17,200 934 Climbing New York Center
Fri 07:57:18 PM 40.8000 -74.7706 271° West 319 367 19,000 1,866 Climbing New York Center
Fri 07:58:16 PM 40.8000 -74.8911 270° West 329 379 20,900 1,881 Climbing New York Center
Fri 07:59:16 PM 40.7792 -75.0106 257° West 329 379 22,700 1,700 Climbing New York Center
Fri 08:00:16 PM 40.7458 -75.1289 250° West 335 386 24,300 1,462 Climbing New York Center
Fri 08:01:15 PM 40.7119 -75.2500 250° West 348 400 25,600 1,350 Climbing New York Center
Fri 08:02:16 PM 40.6761 -75.3736 249° West 359 413 27,000 1,240 Climbing New York Center
Fri 08:03:16 PM 40.6397 -75.4997 249° West 364 419 28,100 1,613 Climbing New York Center
Fri 08:04:15 PM 40.6036 -75.6228 249° West 364 419 30,200 1,550 Climbing New York Center
Fri 08:05:16 PM 40.5697 -75.7381 249° West 359 413 31,200 1,050 Climbing New York Center
Fri 08:06:15 PM 40.5356 -75.8531 249° West 354 407 32,300 1,059 Climbing New York Center
Fri 08:07:15 PM 40.4922 -75.9861 247° West 349 402 33,300 836 Climbing New York Center
Fri 08:08:17 PM 40.4578 -76.1008 248° West 349 402 34,000 347 Climbing New York Center
Fri 08:09:16 PM 40.4253 -76.2211 250° West 349 402 34,000  Level New York Center
Fri 08:10:16 PM 40.3861 -76.3461 248° West 360 414 34,000  Level New York Center
Fri 08:11:15 PM 40.3508 -76.4739 250° West 365 420 34,000  Level New York Center
Fri 08:12:16 PM 40.3033 -76.5928 242° Southwest 371 427 34,000  Level New York Center
Fri 08:13:17 PM 40.2533 -76.7164 242° Southwest 376 433 34,000  Level New York Center
Fri 08:14:17 PM 40.2058 -76.8344 242° Southwest 376 433 34,000  Level New York Center
Fri 08:15:16 PM 40.1581 -76.9525 242° Southwest 381 438 34,000  Level New York Center
Fri 08:16:17 PM 40.1383 -77.0867 259° West 367 422 34,000  Level New York Center
Fri 08:17:18 PM 40.1353 -77.2194 268° West 374 430 34,000  Level New York Center
Fri 08:19:39 PM 40.1322 -77.5244 269° West 367 422 34,000  Level Cleveland Center
Fri 08:20:41 PM 40.1292 -77.6556 268° West 366 421 34,000  Level Cleveland Center
Fri 08:21:43 PM 40.1250 -77.8142 268° West 366 421 34,000  Level Cleveland Center
Fri 08:22:45 PM 40.1222 -77.9361 268° West 366 421 34,000  Level Cleveland Center
Fri 08:23:47 PM 40.1189 -78.0689 268° West 366 421 34,000  Level Cleveland Center
Fri 08:24:49 PM 40.1158 -78.2028 268° West 367 422 34,000  Level Cleveland Center
Fri 08:25:51 PM 40.1111 -78.3625 268° West 369 425 34,000  Level Cleveland Center
Fri 08:26:53 PM 40.1075 -78.4947 268° West 368 423 34,000  Level Cleveland Center
Fri 08:27:55 PM 40.1039 -78.6261 268° West 366 421 34,000  Level Cleveland Center
Fri 08:28:57 PM 40.1000 -78.7567 268° West 364 419 34,000  Level Cleveland Center
Fri 08:29:59 PM 40.0961 -78.8867 268° West 363 418 34,000  Level Cleveland Center
Fri 08:31:02 PM 40.0911 -79.0444 268° West 364 419 34,000  Level Cleveland Center
Fri 08:32:04 PM 40.0867 -79.1747 267° West 363 418 34,000  Level Cleveland Center
Fri 08:33:06 PM 40.0822 -79.3050 267° West 362 417 34,000  Level Cleveland Center
Fri 08:34:08 PM 40.0781 -79.4311 268° West 362 417 34,000  Level Cleveland Center
Fri 08:35:10 PM 40.0722 -79.5614 267° West 362 417 34,000  Level Cleveland Center
Fri 08:36:12 PM 40.0675 -79.6911 267° West 361 415 34,000  Level Cleveland Center
Fri 08:37:14 PM 40.0603 -79.8478 267° West 361 415 34,000  Level Cleveland Center
Fri 08:38:16 PM 40.0539 -79.9769 266° West 359 413 34,000  Level Cleveland Center
Fri 08:39:18 PM 40.0497 -80.1097 268° West 362 417 34,000  Level Cleveland Center
Fri 08:40:20 PM 40.0439 -80.2411 267° West 361 415 34,000  Level Cleveland Center
Fri 08:41:22 PM 40.0381 -80.3719 267° West 360 414 34,000  Level Cleveland Center
Fri 08:42:25 PM 40.0314 -80.5019 266° West 360 414 34,000  Level Cleveland Center
Fri 08:43:27 PM 40.0253 -80.6319 267° West 359 413 34,000  Level Cleveland Center
Fri 08:44:29 PM 40.0186 -80.7847 267° West 353 406 34,000  Level Cleveland Center
Fri 08:45:31 PM 40.0153 -80.9144 268° West 355 409 34,000  Level Cleveland Center
Fri 08:46:33 PM 40.0136 -81.0464 269° West 360 414 34,000  Level Cleveland Center
Fri 08:47:35 PM 40.0117 -81.1783 269° West 364 419 34,000  Level Cleveland Center
Fri 08:48:39 PM 40.0094 -81.3264 269° West 360 414 34,000  Level Indianapolis Center
Fri 08:49:41 PM 40.0075 -81.4556 269° West 359 413 34,000  Level Indianapolis Center
Fri 08:50:42 PM 40.0047 -81.5878 268° West 358 412 34,000  Level Indianapolis Center
Fri 08:51:44 PM 40.0022 -81.7192 269° West 358 412 34,000  Level Indianapolis Center
Fri 08:52:45 PM 39.9989 -81.8383 268° West 357 411 34,000  Level Indianapolis Center
Fri 08:53:47 PM 39.9961 -81.9925 269° West 357 411 34,000  Level Indianapolis Center
Fri 08:54:48 PM 39.9922 -82.1200 268° West 356 410 34,000  Level Indianapolis Center
Fri 08:55:50 PM 39.9892 -82.2478 268° West 355 409 34,000  Level Indianapolis Center
Fri 08:56:51 PM 39.9858 -82.3775 268° West 355 409 34,000  Level Indianapolis Center
Fri 08:57:53 PM 39.9825 -82.5083 268° West 357 411 34,000  Level Indianapolis Center
Fri 08:58:54 PM 39.9781 -82.6381 267° West 358 412 34,000  Level Indianapolis Center
Fri 08:59:56 PM 39.9742 -82.7669 268° West 359 413 34,000  Level Indianapolis Center
Fri 09:00:57 PM 39.9697 -82.8964 267° West 358 412 34,000  Level Indianapolis Center
Fri 09:01:59 PM 39.9650 -83.0511 268° West 359 413 34,000  Level Indianapolis Center
Fri 09:03:00 PM 39.9631 -83.1800 269° West 358 412 34,000  Level Indianapolis Center
Fri 09:04:01 PM 39.9589 -83.3097 268° West 359 413 34,000  Level Indianapolis Center
Fri 09:05:03 PM 39.9550 -83.4367 268° West 359 413 34,000  Level Indianapolis Center
Fri 09:06:04 PM 39.9503 -83.5636 267° West 359 413 34,000  Level Indianapolis Center
Fri 09:07:06 PM 39.9447 -83.7192 267° West 360 414 34,000  Level Indianapolis Center
Fri 09:08:07 PM 39.9397 -83.8497 267° West 362 417 34,000  Level Indianapolis Center
Fri 09:09:09 PM 39.9347 -83.9806 267° West 363 418 34,000  Level Indianapolis Center
Fri 09:10:10 PM 39.9100 -84.1011 255° West 356 410 34,000  Level Indianapolis Center
Fri 09:11:12 PM 39.8661 -84.2189 244° Southwest 359 413 34,000  Level Indianapolis Center
Fri 09:12:13 PM 39.8208 -84.3378 244° Southwest 363 418 34,000  Level Indianapolis Center
Fri 09:13:14 PM 39.7750 -84.4581 244° Southwest 366 421 34,000  Level Indianapolis Center
Fri 09:14:16 PM 39.7303 -84.5789 244° Southwest 371 427 34,000  Level Indianapolis Center
Fri 09:15:17 PM 39.6756 -84.7222 244° Southwest 371 427 34,000  Level Indianapolis Center
Fri 09:16:18 PM 39.6294 -84.8411 243° Southwest 371 427 34,000  Level Indianapolis Center
Fri 09:17:20 PM 39.5875 -84.9497 243° Southwest 371 427 34,000  Level Indianapolis Center
Fri 09:18:21 PM 39.5400 -85.0694 243° Southwest 371 427 34,000  Level Indianapolis Center
Fri 09:19:23 PM 39.4939 -85.1883 243° Southwest 371 427 34,000  Level Indianapolis Center
Fri 09:20:24 PM 39.4378 -85.3303 243° Southwest 371 427 34,000  Level Indianapolis Center
Fri 09:21:25 PM 39.3922 -85.4481 243° Southwest 369 425 34,000  Level Indianapolis Center
Fri 09:22:27 PM 39.3461 -85.5650 243° Southwest 368 423 34,000  Level Indianapolis Center
Fri 09:23:28 PM 39.2992 -85.6828 243° Southwest 368 423 34,000  Level Indianapolis Center
Fri 09:24:29 PM 39.2531 -85.7992 243° Southwest 367 422 34,000  Level Indianapolis Center
Fri 09:25:30 PM 39.2067 -85.9144 243° Southwest 365 420 34,000  Level Indianapolis Center
Fri 09:26:32 PM 39.1600 -86.0314 243° Southwest 365 420 34,000  Level Indianapolis Center
Fri 09:27:33 PM 39.1131 -86.1475 243° Southwest 365 420 34,000  Level Indianapolis Center
Fri 09:28:34 PM 39.0658 -86.2644 243° Southwest 365 420 34,000  Level Indianapolis Center
Fri 09:29:36 PM 39.0194 -86.3806 243° Southwest 365 420 34,000  Level Indianapolis Center
Fri 09:30:37 PM 38.9728 -86.4947 242° Southwest 365 420 34,000  Level Indianapolis Center
Fri 09:31:38 PM 38.9228 -86.6178 242° Southwest 364 419 34,000  Level Indianapolis Center
Fri 09:32:39 PM 38.8753 -86.7314 242° Southwest 363 418 34,000  Level Indianapolis Center
Fri 09:33:41 PM 38.8286 -86.8456 242° Southwest 363 418 34,000  Level Indianapolis Center
Fri 09:34:42 PM 38.7814 -86.9600 242° Southwest 363 418 34,000  Level Indianapolis Center
Fri 09:35:43 PM 38.7247 -87.0958 242° Southwest 363 418 34,000  Level Indianapolis Center
Fri 09:36:45 PM 38.6775 -87.2089 242° Southwest 363 418 34,000  Level Indianapolis Center
Fri 09:37:46 PM 38.6314 -87.3231 243° Southwest 363 418 34,000  Level Indianapolis Center
Fri 09:38:47 PM 38.5833 -87.4364 242° Southwest 363 418 34,000  Level Indianapolis Center
Fri 09:39:48 PM 38.5353 -87.5500 242° Southwest 363 418 34,000  Level Indianapolis Center
Fri 09:40:50 PM 38.4883 -87.6639 242° Southwest 363 418 34,000  Level Indianapolis Center
Fri 09:41:51 PM 38.4406 -87.7769 242° Southwest 363 418 34,000  Level Indianapolis Center
Fri 09:42:52 PM 38.3925 -87.8897 241° Southwest 363 418 34,000  Level Indianapolis Center
Fri 09:43:54 PM 38.3442 -88.0022 241° Southwest 363 418 34,000  Level Indianapolis Center
Fri 09:44:55 PM 38.2850 -88.1394 241° Southwest 363 418 34,000  Level Indianapolis Center
Fri 09:45:56 PM 38.2364 -88.2531 241° Southwest 363 418 34,000  Level Indianapolis Center
Fri 09:46:58 PM 38.1869 -88.3667 241° Southwest 365 420 34,000  Level Indianapolis Center
Fri 09:47:59 PM 38.1378 -88.4778 241° Southwest 364 419 34,000  Level Indianapolis Center
Fri 09:49:00 PM 38.0892 -88.5911 241° Southwest 364 419 34,000  Level Indianapolis Center
Fri 09:50:01 PM 38.0219 -88.6911 230° Southwest 379 436 34,000  Level Indianapolis Center
Fri 09:51:03 PM 37.9481 -88.7861 225° Southwest 374 430 34,000  Level Indianapolis Center
Fri 09:52:04 PM 37.8736 -88.8792 225° Southwest 375 432 34,000  Level Indianapolis Center
Fri 09:52:55 PM 37.8014 -88.9697 225° Southwest 377 434 34,000  Level Memphis Center
Fri 09:53:57 PM 37.7256 -89.0653 225° Southwest 381 438 34,000  Level Memphis Center
Fri 09:54:58 PM 37.6489 -89.1625 225° Southwest 387 445 34,000  Level Memphis Center
Fri 09:55:59 PM 37.5753 -89.2581 226° Southwest 386 444 34,000  Level Memphis Center
Fri 09:57:00 PM 37.5006 -89.3539 226° Southwest 385 443 34,000  Level Memphis Center
Fri 09:58:01 PM 37.4283 -89.4497 227° Southwest 384 442 34,000  Level Memphis Center
Fri 09:59:03 PM 37.3578 -89.5458 227° Southwest 379 436 34,000  Level Memphis Center
Fri 10:00:04 PM 37.2994 -89.6494 235° Southwest 370 426 34,000  Level Memphis Center
Fri 10:01:05 PM 37.2494 -89.7831 245° Southwest 356 410 34,000  Level Memphis Center
Fri 10:02:06 PM 37.2058 -89.8958 244° Southwest 356 410 34,000  Level Memphis Center
Fri 10:03:07 PM 37.1625 -90.0083 244° Southwest 356 410 34,000  Level Memphis Center
Fri 10:04:08 PM 37.1183 -90.1192 243° Southwest 357 411 34,000  Level Memphis Center
Fri 10:05:10 PM 37.0761 -90.2283 244° Southwest 356 410 34,000  Level Memphis Center
Fri 10:06:11 PM 37.0331 -90.3378 244° Southwest 355 409 34,000  Level Memphis Center
Fri 10:07:12 PM 36.9900 -90.4456 243° Southwest 353 406 34,000  Level Memphis Center
Fri 10:08:13 PM 36.9475 -90.5514 243° Southwest 349 402 34,000  Level Memphis Center
Fri 10:09:14 PM 36.9072 -90.6575 245° Southwest 344 396 34,000  Level Memphis Center
Fri 10:10:15 PM 36.8647 -90.7628 243° Southwest 343 395 34,000  Level Memphis Center
Fri 10:11:16 PM 36.8128 -90.8900 243° Southwest 342 394 34,000 -341 Level Memphis Center
Fri 10:12:18 PM 36.7711 -90.9964 244° Southwest 342 394 33,300 -976 Descending Memphis Center
Fri 10:13:19 PM 36.7306 -91.0986 244° Southwest 342 394 32,000 -1,279 Descending Memphis Center
Fri 10:14:20 PM 36.6867 -91.2056 243° Southwest 342 394 30,700 -984 Descending Memphis Center
Fri 10:15:21 PM 36.6414 -91.3169 243° Southwest 352 405 30,000 -344 Descending Memphis Center
Fri 10:16:22 PM 36.5981 -91.4267 244° Southwest 352 405 30,000  Level Memphis Center
Fri 10:17:23 PM 36.5528 -91.5350 243° Southwest 352 405 30,000  Level Memphis Center
Fri 10:18:24 PM 36.5083 -91.6444 243° Southwest 352 405 30,000  Level Memphis Center
Fri 10:19:25 PM 36.4592 -91.7631 243° Southwest 351 404 30,000  Level Memphis Center
Fri 10:20:26 PM 36.4153 -91.8708 243° Southwest 351 404 30,000  Level Memphis Center
Fri 10:21:27 PM 36.3708 -91.9781 243° Southwest 351 404 30,000  Level Memphis Center
Fri 10:22:28 PM 36.3269 -92.0861 243° Southwest 351 404 30,000  Level Memphis Center
Fri 10:23:29 PM 36.2817 -92.1931 242° Southwest 351 404 30,000  Level Memphis Center
Fri 10:24:30 PM 36.2358 -92.3006 242° Southwest 351 404 30,000  Level Memphis Center
Fri 10:25:31 PM 36.1917 -92.4094 243° Southwest 352 405 30,000  Level Memphis Center
Fri 10:27:33 PM 36.1014 -92.6231 242° Southwest 353 406 30,000  Level Memphis Center
Fri 10:28:34 PM 36.0558 -92.7289 242° Southwest 353 406 30,000  Level Memphis Center
Fri 10:29:35 PM 36.0014 -92.8594 243° Southwest 354 407 30,000  Level Memphis Center
Fri 10:30:36 PM 35.9556 -92.9653 242° Southwest 354 407 30,000  Level Memphis Center
Fri 10:31:37 PM 35.9103 -93.0728 243° Southwest 355 409 30,000  Level Memphis Center
Fri 10:32:38 PM 35.8650 -93.1786 242° Southwest 354 407 30,000  Level Memphis Center
Fri 10:33:39 PM 35.8197 -93.2847 242° Southwest 354 407 30,000  Level Memphis Center
Fri 10:34:40 PM 35.7736 -93.3897 242° Southwest 354 407 30,000  Level Memphis Center
Fri 10:35:41 PM 35.7294 -93.4958 243° Southwest 353 406 30,000  Level Memphis Center
Fri 10:36:42 PM 35.6831 -93.6014 242° Southwest 353 406 30,000  Level Memphis Center
Fri 10:37:43 PM 35.6361 -93.7089 242° Southwest 355 409 30,000  Level Memphis Center
Fri 10:38:44 PM 35.5778 -93.8411 242° Southwest 363 418 30,000  Level Memphis Center
Fri 10:39:45 PM 35.5292 -93.9508 241° Southwest 365 420 30,000  Level Memphis Center
Fri 10:40:46 PM 35.4828 -94.0589 242° Southwest 365 420 30,000  Level Memphis Center
Fri 10:41:47 PM 35.4347 -94.1692 242° Southwest 365 420 30,000  Level Memphis Center
Fri 10:42:48 PM 35.3833 -94.2753 239° Southwest 365 420 30,000  Level Memphis Center
Fri 10:43:49 PM 35.3044 -94.3625 222° Southwest 381 438 30,000  Level Memphis Center
Fri 10:44:50 PM 35.2264 -94.4483 222° Southwest 381 438 30,000  Level Memphis Center
Fri 10:45:51 PM 35.1469 -94.5347 222° Southwest 381 438 30,000  Level Memphis Center
Fri 10:46:47 PM 35.0681 -94.6183 221° Southwest 379 436 30,000  Level Fort Worth Center
Fri 10:47:49 PM 34.9894 -94.7036 222° Southwest 379 436 30,000  Level Fort Worth Center
Fri 10:48:50 PM 34.9100 -94.7894 222° Southwest 379 436 30,000  Level Fort Worth Center
Fri 10:49:51 PM 34.8317 -94.8731 221° Southwest 379 436 30,000  Level Fort Worth Center
Fri 10:50:52 PM 34.7511 -94.9597 221° Southwest 384 442 30,000  Level Fort Worth Center
Fri 10:51:54 PM 34.6731 -95.0439 222° Southwest 384 442 30,000 -390 Level Fort Worth Center
Fri 10:52:55 PM 34.5961 -95.1256 221° Southwest 371 427 29,200 -885 Descending Fort Worth Center
Fri 10:53:56 PM 34.5075 -95.2200 221° Southwest 360 414 28,200 -878 Descending Fort Worth Center
Fri 10:54:58 PM 34.4342 -95.2975 221° Southwest 354 407 27,400 -780 Descending Fort Worth Center
Fri 10:55:59 PM 34.3608 -95.3753 221° Southwest 353 406 26,600 -787 Descending Fort Worth Center
Fri 10:57:00 PM 34.2878 -95.4536 222° Southwest 353 406 25,800 -1,033 Descending Fort Worth Center
Fri 10:58:01 PM 34.2125 -95.5317 221° Southwest 354 407 24,500 -1,220 Descending Fort Worth Center
Fri 10:59:03 PM 34.1294 -95.6183 221° Southwest 354 407 23,300 -1,024 Descending Fort Worth Center
Fri 11:00:04 PM 34.0611 -95.6917 222° Southwest 350 403 22,400 -885 Descending Fort Worth Center
Fri 11:01:05 PM 33.9869 -95.7672 220° Southwest 350 403 21,500 -885 Descending Fort Worth Center
Fri 11:02:06 PM 33.9156 -95.8428 221° Southwest 348 400 20,600 -1,122 Descending Fort Worth Center
Fri 11:03:08 PM 33.8436 -95.9172 221° Southwest 345 397 19,200 -1,415 Descending Fort Worth Center
Fri 11:04:09 PM 33.7558 -96.0053 220° Southwest 343 395 17,700 -1,426 Descending Fort Worth Center
Fri 11:05:10 PM 33.6861 -96.0792 221° Southwest 337 388 16,300 -1,268 Descending Fort Worth Center
Fri 11:06:12 PM 33.6172 -96.1508 221° Southwest 332 382 15,100 -1,220 Descending Fort Worth Center
Fri 11:07:13 PM 33.5511 -96.2189 221° Southwest 317 365 13,800 -1,230 Descending Fort Worth Center
Fri 11:08:14 PM 33.4892 -96.2917 224° Southwest 312 359 12,600 -1,230 Descending Fort Worth Center
Fri 11:09:15 PM 33.4231 -96.3708 225° Southwest 310 357 11,300 -984 Descending Fort Worth Center
Fri 11:10:16 PM 33.3664 -96.4386 225° Southwest 288 331 10,600 -947 Descending Fort Worth Center
Fri 11:10:50 PM 33.3333 -96.4833 229° Southwest 278 320 9,800 -1,340 Descending Dallas / Fort Worth TRACON
Fri 11:11:50 PM 33.3000 -96.5667 244° Southwest 277 319 8,500 -1,300 Descending Dallas / Fort Worth TRACON
Fri 11:12:50 PM 33.2500 -96.6333 228° Southwest 274 315 7,200 -1,267 Descending Dallas / Fort Worth TRACON
Fri 11:13:20 PM 33.2364 -96.6722 247° West 274 315 6,600 -1,121 Descending Fort Worth Center
Fri 11:14:21 PM 33.1997 -96.7392 237° Southwest 267 307 5,500 -1,082 Descending Fort Worth Center
Fri 11:15:22 PM 33.1547 -96.8217 237° Southwest 260 299 4,400 -1,033 Descending Fort Worth Center
Fri 11:16:23 PM 33.1156 -96.8917 236° Southwest 258 297 3,400 -894 Descending Fort Worth Center
Fri 11:16:56 PM 33.1000 -96.9333 246° West 243 280 3,000 -242 Descending Dallas / Fort Worth TRACON
Fri 11:18:02 PM 33.0667 -96.9833 232° Southwest 178 205 3,000 -100 Level Dallas / Fort Worth TRACON
Fri 11:18:56 PM 33.0333 -97.0167 220° Southwest 175 201 2,800 -579 Descending Dallas / Fort Worth TRACON
Fri 11:19:56 PM 32.9833 -97.0167 180° South 162 186 1,900 -762 Descending Dallas / Fort Worth TRACON
Fri 11:21:02 PM 32.9500 -97.0167 180° South 111 128 1,200 -636 Descending Dallas / Fort Worth TRACON

Login

Don't have an account? Register now (free) for customized features, flight alerts, and more!